Time,TemperatureF,DewpointF,PressureIn,WindDirection,WindDirectionDegrees,WindSpeedMPH,WindSpeedGustMPH,Humidity,HourlyPrecipIn,Conditions,Clouds,dailyrainin,SolarRadiationWatts/m^2,SoftwareType,DateUTC
2013-09-19 00:00:00,71.4,68.6,29.78,SSW,203,1.0,6.0,91,0.00,,---,0.02,0.00,VWS V14.01,2013-09-19 05:00:00,
2013-09-19 00:03:00,71.4,68.6,29.78,SSW,203,2.0,3.0,91,0.00,,---,0.00,0.00,VWS V14.01,2013-09-19 05:03:00,
2013-09-19 00:08:00,71.4,68.6,29.78,SSW,203,0.0,3.0,91,0.00,,---,0.00,0.00,VWS V14.01,2013-09-19 05:08:00,
2013-09-19 00:13:00,71.4,68.6,29.78,SSW,203,0.0,3.0,91,0.00,,---,0.00,0.00,VWS V14.01,2013-09-19 05:13:00,
2013-09-19 00:18:00,71.3,68.5,29.78,SSW,203,0.0,3.0,91,0.00,,---,0.00,0.00,VWS V14.01,2013-09-19 05:18:00,
2013-09-19 00:23:00,71.3,68.5,29.78,SSW,203,0.0,3.0,91,0.00,,---,0.00,0.00,VWS V14.01,2013-09-19 05:23:00,
2013-09-19 00:28:00,71.2,68.4,29.78,SSW,203,1.0,3.0,91,0.00,,---,0.00,0.00,VWS V14.01,2013-09-19 05:28:00,
2013-09-19 00:33:00,71.2,68.4,29.78,SSW,203,1.0,3.0,91,0.00,,---,0.00,0.00,VWS V14.01,2013-09-19 05:33:00,
2013-09-19 00:38:00,71.3,68.9,29.78,SE,129,0.0,3.0,92,0.00,,---,0.00,0.00,VWS V14.01,2013-09-19 05:38:00,
2013-09-19 00:43:00,71.3,68.5,29.78,SE,129,0.0,3.0,91,0.00,,---,0.00,0.00,VWS V14.01,2013-09-19 05:43:00,
2013-09-19 00:48:00,71.3,68.5,29.78,SE,129,0.0,3.0,91,0.00,,---,0.00,0.00,VWS V14.01,2013-09-19 05:48:00,
2013-09-19 00:53:00,71.4,68.6,29.78,SE,129,0.0,3.0,91,0.00,,---,0.00,0.00,VWS V14.01,2013-09-19 05:53:00,
2013-09-19 00:58:00,71.3,68.5,29.78,SE,129,0.0,3.0,91,0.00,,---,0.00,0.00,VWS V14.01,2013-09-19 05:58:00,
2013-09-19 01:00:00,71.4,68.6,29.78,SE,129,0.0,3.0,91,0.00,,---,0.00,0.00,VWS V14.01,2013-09-19 06:00:00,
2013-09-19 01:03:00,71.3,68.5,29.78,SE,129,0.0,0.0,91,0.00,,---,0.00,0.00,VWS V14.01,2013-09-19 06:03:00,
2013-09-19 01:08:00,71.3,68.5,29.78,SE,129,0.0,0.0,91,0.00,,---,0.00,0.00,VWS V14.01,2013-09-19 06:08:00,
2013-09-19 01:13:00,71.3,68.5,29.78,SE,129,0.0,1.0,91,0.00,,---,0.00,0.00,VWS V14.01,2013-09-19 06:13:00,
2013-09-19 01:18:00,71.1,68.3,29.78,SE,129,0.0,1.0,91,0.00,,---,0.00,0.00,VWS V14.01,2013-09-19 06:18:00,
2013-09-19 01:23:00,71.1,68.3,29.79,ESE,121,2.0,3.0,91,0.00,,---,0.00,0.00,VWS V14.01,2013-09-19 06:23:00,
2013-09-19 01:28:00,71.1,68.7,29.78,ESE,121,0.0,3.0,92,0.00,,---,0.00,0.00,VWS V14.01,2013-09-19 06:28:00,
2013-09-19 01:33:00,71.0,68.6,29.78,ESE,121,1.0,3.0,92,0.00,,---,0.00,0.00,VWS V14.01,2013-09-19 06:33:00,
2013-09-19 01:38:00,71.0,68.6,29.78,ESE,121,0.0,3.0,92,0.00,,---,0.00,0.00,VWS V14.01,2013-09-19 06:38:00,
2013-09-19 01:43:00,71.0,68.6,29.78,ESE,121,0.0,3.0,92,0.00,,---,0.00,0.00,VWS V14.01,2013-09-19 06:43:00,
2013-09-19 01:48:00,70.9,68.5,29.78,ESE,121,0.0,3.0,92,0.00,,---,0.00,0.00,VWS V14.01,2013-09-19 06:48:00,
2013-09-19 01:53:00,70.9,68.5,29.78,ESE,121,0.0,3.0,92,0.00,,---,0.00,0.00,VWS V14.01,2013-09-19 06:53:00,
2013-09-19 01:58:00,70.9,68.5,29.78,ESE,121,0.0,3.0,92,0.00,,---,0.00,0.00,VWS V14.01,2013-09-19 06:58:00,
2013-09-19 02:00:00,70.8,68.4,29.78,ESE,121,0.0,3.0,92,0.00,,---,0.00,0.00,VWS V14.01,2013-09-19 07:00:00,
2013-09-19 02:03:00,70.8,68.4,29.78,ESE,121,0.0,0.0,92,0.00,,---,0.00,0.00,VWS V14.01,2013-09-19 07:03:00,
2013-09-19 02:08:00,70.7,68.3,29.78,SE,140,0.0,1.0,92,0.00,,---,0.00,0.00,VWS V14.01,2013-09-19 07:08:00,
2013-09-19 02:13:00,70.7,68.3,29.78,SE,140,0.0,1.0,92,0.00,,---,0.00,0.00,VWS V14.01,2013-09-19 07:13:00,
2013-09-19 02:18:00,70.6,68.2,29.78,SE,140,0.0,1.0,92,0.00,,---,0.00,0.00,VWS V14.01,2013-09-19 07:18:00,
2013-09-19 02:23:00,70.6,68.2,29.78,SE,140,0.0,1.0,92,0.00,,---,0.00,0.00,VWS V14.01,2013-09-19 07:23:00,
2013-09-19 02:28:00,70.5,68.1,29.77,SSE,152,0.0,1.0,92,0.00,,---,0.00,0.00,VWS V14.01,2013-09-19 07:28:00,
2013-09-19 02:33:00,70.5,68.4,29.78,SE,128,0.0,1.0,93,0.00,,---,0.00,0.00,VWS V14.01,2013-09-19 07:33:00,
2013-09-19 02:38:00,70.5,68.4,29.78,SE,128,0.0,1.0,93,0.00,,---,0.00,0.00,VWS V14.01,2013-09-19 07:38:00,
2013-09-19 02:43:00,70.4,68.3,29.77,SE,128,0.0,1.0,93,0.00,,---,0.00,0.00,VWS V14.01,2013-09-19 07:43:00,
2013-09-19 02:48:00,70.3,68.2,29.77,SE,128,0.0,1.0,93,0.00,,---,0.00,0.00,VWS V14.01,2013-09-19 07:48:00,
2013-09-19 02:53:00,70.3,68.2,29.77,SE,128,0.0,1.0,93,0.00,,---,0.00,0.00,VWS V14.01,2013-09-19 07:53:00,
2013-09-19 02:58:00,70.3,68.2,29.77,SE,128,0.0,2.0,93,0.00,,---,0.00,0.00,VWS V14.01,2013-09-19 07:58:00,
2013-09-19 03:00:00,70.3,68.2,29.77,SE,128,0.0,2.0,93,0.00,,---,0.00,0.00,VWS V14.01,2013-09-19 08:00:00,
2013-09-19 03:03:00,70.2,68.1,29.77,North,355,0.0,4.0,93,0.00,,---,0.00,0.00,VWS V14.01,2013-09-19 08:03:00,
2013-09-19 03:08:00,70.2,68.1,29.77,North,355,0.0,4.0,93,0.00,,---,0.00,0.00,VWS V14.01,2013-09-19 08:08:00,
2013-09-19 03:13:00,70.1,68.0,29.77,North,355,0.0,4.0,93,0.00,,---,0.00,0.00,VWS V14.01,2013-09-19 08:13:00,
2013-09-19 03:18:00,70.1,68.0,29.77,North,355,0.0,4.0,93,0.00,,---,0.00,0.00,VWS V14.01,2013-09-19 08:18:00,
2013-09-19 03:23:00,70.1,68.0,29.78,North,355,0.0,4.0,93,0.00,,---,0.00,0.00,VWS V14.01,2013-09-19 08:23:00,
2013-09-19 03:28:00,70.1,68.0,29.78,North,355,0.0,4.0,93,0.00,,---,0.00,0.00,VWS V14.01,2013-09-19 08:28:00,
2013-09-19 03:33:00,70.0,67.9,29.78,North,355,0.0,4.0,93,0.00,,---,0.00,0.00,VWS V14.01,2013-09-19 08:33:00,
2013-09-19 03:38:00,70.1,68.3,29.78,North,355,0.0,4.0,94,0.01,,---,0.01,0.00,VWS V14.01,2013-09-19 08:38:00,
2013-09-19 03:43:00,70.1,68.3,29.78,North,355,1.0,4.0,94,0.03,,---,0.03,0.00,VWS V14.01,2013-09-19 08:43:00,
2013-09-19 03:48:00,70.0,68.2,29.78,North,355,0.0,4.0,94,0.03,,---,0.03,0.00,VWS V14.01,2013-09-19 08:48:00,
2013-09-19 03:53:00,70.0,68.2,29.78,North,355,0.0,4.0,94,0.03,,---,0.03,0.00,VWS V14.01,2013-09-19 08:53:00,
2013-09-19 03:58:00,70.0,68.2,29.78,North,355,0.0,4.0,94,0.03,,---,0.03,0.00,VWS V14.01,2013-09-19 08:58:00,
2013-09-19 04:00:00,70.0,68.2,29.78,North,355,0.0,4.0,94,0.03,,---,0.03,0.00,VWS V14.01,2013-09-19 09:00:00,
2013-09-19 04:03:00,69.9,68.1,29.77,North,355,2.0,2.0,94,0.03,,---,0.03,0.00,VWS V14.01,2013-09-19 09:03:00,
2013-09-19 04:08:00,69.8,68.3,29.77,North,355,0.0,2.0,95,0.03,,---,0.03,0.00,VWS V14.01,2013-09-19 09:08:00,
2013-09-19 04:13:00,69.7,68.2,29.77,North,355,0.0,2.0,95,0.03,,---,0.03,0.00,VWS V14.01,2013-09-19 09:13:00,
2013-09-19 04:18:00,69.7,68.2,29.77,North,355,1.0,2.0,95,0.03,,---,0.03,0.00,VWS V14.01,2013-09-19 09:18:00,
2013-09-19 04:23:00,69.8,68.3,29.77,North,355,0.0,2.0,95,0.03,,---,0.03,0.00,VWS V14.01,2013-09-19 09:23:00,
2013-09-19 04:28:00,69.8,68.3,29.77,North,355,2.0,2.0,95,0.03,,---,0.03,0.00,VWS V14.01,2013-09-19 09:28:00,
2013-09-19 04:33:00,69.7,68.2,29.77,North,355,0.0,2.0,95,0.03,,---,0.03,0.00,VWS V14.01,2013-09-19 09:33:00,
2013-09-19 04:38:00,69.6,68.1,29.78,North,355,0.0,2.0,95,0.03,,---,0.03,0.00,VWS V14.01,2013-09-19 09:38:00,
2013-09-19 04:43:00,69.7,68.2,29.78,North,355,0.0,2.0,95,0.03,,---,0.03,0.00,VWS V14.01,2013-09-19 09:43:00,
2013-09-19 04:48:00,69.7,68.2,29.77,North,355,0.0,2.0,95,0.04,,---,0.04,0.00,VWS V14.01,2013-09-19 09:48:00,
2013-09-19 04:53:00,69.7,68.2,29.77,North,355,0.0,2.0,95,0.04,,---,0.04,0.00,VWS V14.01,2013-09-19 09:53:00,
2013-09-19 04:58:00,69.7,68.5,29.76,North,355,0.0,2.0,96,0.04,,---,0.04,0.00,VWS V14.01,2013-09-19 09:58:00,
2013-09-19 05:00:00,69.7,68.5,29.76,North,355,0.0,2.0,96,0.04,,---,0.04,0.00,VWS V14.01,2013-09-19 10:00:00,
2013-09-19 05:03:00,69.7,68.5,29.77,North,355,0.0,0.0,96,0.01,,---,0.04,0.00,VWS V14.01,2013-09-19 10:03:00,
2013-09-19 05:08:00,69.7,68.5,29.77,North,355,0.0,0.0,96,0.01,,---,0.04,0.00,VWS V14.01,2013-09-19 10:08:00,
2013-09-19 05:13:00,69.7,68.5,29.77,North,355,0.0,0.0,96,0.01,,---,0.04,0.00,VWS V14.01,2013-09-19 10:13:00,
2013-09-19 05:18:00,69.7,68.5,29.77,North,355,0.0,0.0,96,0.01,,---,0.04,0.00,VWS V14.01,2013-09-19 10:18:00,
2013-09-19 05:23:00,69.7,68.5,29.76,North,355,0.0,0.0,96,0.01,,---,0.04,0.00,VWS V14.01,2013-09-19 10:23:00,
2013-09-19 05:28:00,69.6,68.4,29.77,North,355,0.0,1.0,96,0.01,,---,0.04,0.00,VWS V14.01,2013-09-19 10:28:00,
2013-09-19 05:33:00,69.6,68.4,29.77,North,355,0.0,1.0,96,0.01,,---,0.04,0.00,VWS V14.01,2013-09-19 10:33:00,
2013-09-19 05:38:00,69.5,68.3,29.77,North,355,0.0,1.0,96,0.01,,---,0.04,0.00,VWS V14.01,2013-09-19 10:38:00,
2013-09-19 05:43:00,69.5,68.3,29.76,North,355,0.0,1.0,96,0.01,,---,0.04,0.00,VWS V14.01,2013-09-19 10:43:00,
2013-09-19 05:48:00,69.4,68.2,29.76,North,355,1.0,2.0,96,0.01,,---,0.04,0.00,VWS V14.01,2013-09-19 10:48:00,
2013-09-19 05:53:00,69.4,68.2,29.76,North,355,0.0,2.0,96,0.01,,---,0.04,0.00,VWS V14.01,2013-09-19 10:53:00,
2013-09-19 05:58:00,69.3,68.1,29.76,North,355,0.0,2.0,96,0.01,,---,0.04,0.00,VWS V14.01,2013-09-19 10:58:00,
2013-09-19 06:00:00,69.3,68.1,29.76,North,355,0.0,2.0,96,0.01,,---,0.04,0.00,VWS V14.01,2013-09-19 11:00:00,
2013-09-19 06:03:00,69.3,68.1,29.76,North,355,0.0,1.0,96,0.00,,---,0.04,0.00,VWS V14.01,2013-09-19 11:03:00,
2013-09-19 06:08:00,69.3,68.1,29.75,North,355,0.0,2.0,96,0.00,,---,0.04,0.00,VWS V14.01,2013-09-19 11:08:00,
2013-09-19 06:13:00,69.3,68.1,29.75,North,355,0.0,2.0,96,0.00,,---,0.04,0.00,VWS V14.01,2013-09-19 11:13:00,
2013-09-19 06:18:00,69.3,68.1,29.76,NW,324,0.0,2.0,96,0.00,,---,0.04,0.00,VWS V14.01,2013-09-19 11:18:00,
2013-09-19 06:23:00,69.3,68.1,29.76,NW,323,0.0,2.0,96,0.00,,---,0.04,0.00,VWS V14.01,2013-09-19 11:23:00,
2013-09-19 06:28:00,69.3,68.1,29.76,SSW,202,1.0,3.0,96,0.00,,---,0.04,0.00,VWS V14.01,2013-09-19 11:28:00,
2013-09-19 06:33:00,69.2,68.0,29.76,SSW,202,0.0,3.0,96,0.00,,---,0.04,0.00,VWS V14.01,2013-09-19 11:33:00,
2013-09-19 06:38:00,69.3,68.1,29.76,SSW,201,2.0,4.0,96,0.00,,---,0.04,0.00,VWS V14.01,2013-09-19 11:38:00,
2013-09-19 06:43:00,69.3,68.1,29.76,SSW,201,2.0,5.0,96,0.00,,---,0.04,0.00,VWS V14.01,2013-09-19 11:43:00,
2013-09-19 06:48:00,69.3,68.1,29.76,SSW,201,0.0,5.0,96,0.00,,---,0.04,0.00,VWS V14.01,2013-09-19 11:48:00,
2013-09-19 06:53:00,69.3,68.1,29.76,South,183,0.0,5.0,96,0.00,,---,0.04,0.00,VWS V14.01,2013-09-19 11:53:00,
2013-09-19 06:58:00,69.3,68.1,29.76,SSW,205,4.0,5.0,96,0.00,,---,0.04,0.00,VWS V14.01,2013-09-19 11:58:00,
2013-09-19 07:00:00,69.3,68.1,29.76,SSE,147,2.0,5.0,96,0.00,,---,0.04,0.00,VWS V14.01,2013-09-19 12:00:00,
2013-09-19 07:03:00,69.3,68.1,29.76,SSE,151,0.0,2.0,96,0.00,,---,0.04,0.00,VWS V14.01,2013-09-19 12:03:00,
2013-09-19 07:08:00,69.3,68.1,29.76,SSE,151,0.0,2.0,96,0.01,,---,0.05,5.00,VWS V14.01,2013-09-19 12:08:00,
2013-09-19 07:13:00,69.3,68.1,29.76,SSE,151,0.0,2.0,96,0.01,,---,0.05,9.00,VWS V14.01,2013-09-19 12:13:00,
2013-09-19 07:18:00,69.3,68.1,29.76,SSE,151,0.0,2.0,96,0.01,,---,0.05,14.00,VWS V14.01,2013-09-19 12:18:00,
2013-09-19 07:23:00,69.2,68.0,29.76,SSE,151,0.0,2.0,96,0.01,,---,0.05,18.00,VWS V14.01,2013-09-19 12:23:00,
2013-09-19 07:28:00,69.2,68.0,29.76,SSE,151,0.0,2.0,96,0.01,,---,0.05,19.00,VWS V14.01,2013-09-19 12:28:00,
2013-09-19 07:33:00,69.2,68.0,29.76,SSE,151,0.0,2.0,96,0.01,,---,0.05,19.00,VWS V14.01,2013-09-19 12:33:00,
2013-09-19 07:38:00,69.2,68.0,29.76,SSE,150,0.0,2.0,96,0.01,,---,0.05,21.00,VWS V14.01,2013-09-19 12:38:00,
2013-09-19 07:43:00,69.2,68.0,29.76,SSE,151,1.0,2.0,96,0.01,,---,0.05,21.00,VWS V14.01,2013-09-19 12:43:00,
2013-09-19 07:48:00,69.2,68.0,29.76,SSE,151,0.0,2.0,96,0.01,,---,0.05,18.00,VWS V14.01,2013-09-19 12:48:00,
2013-09-19 07:53:00,69.2,68.0,29.76,SSE,151,1.0,2.0,96,0.01,,---,0.05,18.00,VWS V14.01,2013-09-19 12:53:00,
2013-09-19 07:58:00,69.1,67.9,29.76,SSE,150,0.0,2.0,96,0.02,,---,0.06,14.00,VWS V14.01,2013-09-19 12:58:00,
2013-09-19 08:00:00,69.1,67.9,29.76,SSE,151,0.0,2.0,96,0.02,,---,0.06,14.00,VWS V14.01,2013-09-19 13:00:00,
2013-09-19 08:03:00,69.2,68.0,29.76,SE,133,5.0,6.0,96,0.10,,---,0.14,9.00,VWS V14.01,2013-09-19 13:03:00,
2013-09-19 08:08:00,69.0,67.8,29.75,South,175,2.0,7.0,96,0.15,,---,0.19,11.00,VWS V14.01,2013-09-19 13:08:00,
2013-09-19 08:13:00,69.0,67.8,29.75,South,175,1.0,7.0,96,0.15,,---,0.19,16.00,VWS V14.01,2013-09-19 13:13:00,
2013-09-19 08:18:00,68.9,67.7,29.75,SSE,165,1.0,7.0,96,0.15,,---,0.19,18.00,VWS V14.01,2013-09-19 13:18:00,
2013-09-19 08:23:00,68.8,67.6,29.76,SSE,165,0.0,7.0,96,0.15,,---,0.19,32.00,VWS V14.01,2013-09-19 13:23:00,
2013-09-19 08:28:00,68.8,67.6,29.76,SSE,165,0.0,7.0,96,0.15,,---,0.19,42.00,VWS V14.01,2013-09-19 13:28:00,
2013-09-19 08:33:00,68.8,67.6,29.76,SSE,165,0.0,7.0,96,0.15,,---,0.19,49.00,VWS V14.01,2013-09-19 13:33:00,
2013-09-19 08:38:00,68.8,67.6,29.76,SSE,165,0.0,7.0,96,0.15,,---,0.19,67.00,VWS V14.01,2013-09-19 13:38:00,
2013-09-19 08:43:00,68.8,67.6,29.76,SSE,165,0.0,7.0,96,0.15,,---,0.19,81.00,VWS V14.01,2013-09-19 13:43:00,
2013-09-19 08:48:00,69.0,67.8,29.77,SSE,165,1.0,7.0,96,0.15,,---,0.19,100.00,VWS V14.01,2013-09-19 13:48:00,
2013-09-19 08:53:00,69.0,67.8,29.76,SSE,165,0.0,7.0,96,0.15,,---,0.19,116.00,VWS V14.01,2013-09-19 13:53:00,
2013-09-19 08:58:00,69.5,68.3,29.76,SSE,165,0.0,7.0,96,0.15,,---,0.19,295.00,VWS V14.01,2013-09-19 13:58:00,
2013-09-19 09:00:00,69.5,68.3,29.76,SSE,165,0.0,7.0,96,0.15,,---,0.19,295.00,VWS V14.01,2013-09-19 14:00:00,
2013-09-19 09:03:00,69.6,68.4,29.76,SE,139,0.0,2.0,96,0.13,,---,0.19,76.00,VWS V14.01,2013-09-19 14:03:00,
2013-09-19 09:08:00,69.7,68.5,29.76,SE,140,0.0,2.0,96,0.13,,---,0.19,86.00,VWS V14.01,2013-09-19 14:08:00,
2013-09-19 09:14:00,69.7,68.5,29.76,SE,140,0.0,2.0,96,0.13,,---,0.19,114.00,VWS V14.01,2013-09-19 14:14:00,
2013-09-19 09:19:00,70.0,68.8,29.76,SE,140,0.0,2.0,96,0.13,,---,0.19,448.00,VWS V14.01,2013-09-19 14:19:00,
2013-09-19 09:24:00,70.4,69.2,29.77,SE,140,0.0,2.0,96,0.13,,---,0.19,120.00,VWS V14.01,2013-09-19 14:24:00,
2013-09-19 09:29:00,70.7,69.5,29.77,South,178,3.0,3.0,96,0.13,,---,0.19,105.00,VWS V14.01,2013-09-19 14:29:00,
2013-09-19 09:34:00,70.8,69.6,29.77,SSW,205,0.0,5.0,96,0.13,,---,0.19,158.00,VWS V14.01,2013-09-19 14:34:00,
2013-09-19 09:39:00,71.4,70.2,29.77,South,183,2.0,5.0,96,0.13,,---,0.19,376.00,VWS V14.01,2013-09-19 14:39:00,
2013-09-19 09:44:00,72.1,70.3,29.77,SSW,202,3.0,6.0,94,0.13,,---,0.19,462.00,VWS V14.01,2013-09-19 14:44:00,
2013-09-19 09:49:00,72.3,70.5,29.77,SSE,168,3.0,6.0,94,0.13,,---,0.19,193.00,VWS V14.01,2013-09-19 14:49:00,
2013-09-19 09:54:00,72.1,70.0,29.77,South,180,1.0,6.0,93,0.13,,---,0.19,332.00,VWS V14.01,2013-09-19 14:54:00,
2013-09-19 09:59:00,72.3,70.2,29.77,SE,144,3.0,6.0,93,0.13,,---,0.19,153.00,VWS V14.01,2013-09-19 14:59:00,
2013-09-19 10:00:00,72.3,70.2,29.77,SE,144,3.0,6.0,93,0.13,,---,0.19,153.00,VWS V14.01,2013-09-19 15:00:00,
2013-09-19 10:04:00,72.3,70.2,29.77,South,187,1.0,3.0,93,0.00,,---,0.19,545.00,VWS V14.01,2013-09-19 15:04:00,
2013-09-19 10:09:00,72.5,70.1,29.77,SE,124,1.0,3.0,92,0.00,,---,0.19,165.00,VWS V14.01,2013-09-19 15:09:00,
2013-09-19 10:14:00,72.5,69.7,29.78,South,185,1.0,3.0,91,0.00,,---,0.19,185.00,VWS V14.01,2013-09-19 15:14:00,
2013-09-19 10:19:00,72.5,70.1,29.78,SSW,196,5.0,5.0,92,0.00,,---,0.19,629.00,VWS V14.01,2013-09-19 15:19:00,
2013-09-19 10:24:00,73.0,70.2,29.78,SSW,197,3.0,5.0,91,0.00,,---,0.19,214.00,VWS V14.01,2013-09-19 15:24:00,
2013-09-19 10:29:00,73.1,70.3,29.78,South,184,1.0,5.0,91,0.00,,---,0.19,165.00,VWS V14.01,2013-09-19 15:29:00,
2013-09-19 10:34:00,73.0,69.9,29.77,SSW,206,3.0,6.0,90,0.00,,---,0.19,86.00,VWS V14.01,2013-09-19 15:34:00,
2013-09-19 10:39:00,72.9,69.8,29.77,SSW,192,3.0,6.0,90,0.00,,---,0.19,60.00,VWS V14.01,2013-09-19 15:39:00,
2013-09-19 10:44:00,72.8,69.7,29.77,South,177,0.0,6.0,90,0.00,,---,0.19,51.00,VWS V14.01,2013-09-19 15:44:00,
2013-09-19 10:49:00,72.8,69.7,29.76,SSW,206,5.0,6.0,90,0.00,,---,0.19,65.00,VWS V14.01,2013-09-19 15:49:00,
2013-09-19 10:54:00,72.6,69.5,29.75,South,191,1.0,6.0,90,0.02,,---,0.21,88.00,VWS V14.01,2013-09-19 15:54:00,
2013-09-19 10:59:00,72.5,69.7,29.75,South,191,0.0,6.0,91,0.02,,---,0.21,121.00,VWS V14.01,2013-09-19 15:59:00,
2013-09-19 11:00:00,72.5,69.7,29.75,South,191,0.0,6.0,91,0.02,,---,0.21,121.00,VWS V14.01,2013-09-19 16:00:00,
2013-09-19 11:04:00,72.3,69.8,29.75,South,191,0.0,3.0,92,0.02,,---,0.21,195.00,VWS V14.01,2013-09-19 16:04:00,
2013-09-19 11:09:00,71.9,69.4,29.75,South,189,1.0,3.0,92,0.02,,---,0.21,197.00,VWS V14.01,2013-09-19 16:09:00,
2013-09-19 11:14:00,72.0,70.2,29.74,South,182,1.0,3.0,94,0.02,,---,0.21,211.00,VWS V14.01,2013-09-19 16:14:00,
2013-09-19 11:19:00,72.0,70.2,29.74,South,182,1.0,3.0,94,0.02,,---,0.21,229.00,VWS V14.01,2013-09-19 16:19:00,
2013-09-19 11:24:00,72.1,70.3,29.75,SSW,205,4.0,5.0,94,0.02,,---,0.21,223.00,VWS V14.01,2013-09-19 16:24:00,
2013-09-19 11:29:00,72.1,70.3,29.75,South,190,2.0,5.0,94,0.02,,---,0.21,169.00,VWS V14.01,2013-09-19 16:29:00,
2013-09-19 11:34:00,72.1,70.3,29.75,SSE,165,3.0,7.0,94,0.02,,---,0.21,134.00,VWS V14.01,2013-09-19 16:34:00,
2013-09-19 11:39:00,72.1,70.0,29.75,SSW,199,4.0,7.0,93,0.02,,---,0.21,141.00,VWS V14.01,2013-09-19 16:39:00,
2013-09-19 11:44:00,72.0,70.2,29.75,SSW,211,4.0,7.0,94,0.02,,---,0.21,139.00,VWS V14.01,2013-09-19 16:44:00,
2013-09-19 11:49:00,72.0,69.9,29.75,SW,216,5.0,7.0,93,0.02,,---,0.21,125.00,VWS V14.01,2013-09-19 16:49:00,
2013-09-19 11:54:00,71.9,69.8,29.75,SSW,202,3.0,7.0,93,0.02,,---,0.21,95.00,VWS V14.01,2013-09-19 16:54:00,
2013-09-19 11:59:00,71.9,69.8,29.75,SW,222,2.0,4.0,93,0.00,,---,0.21,90.00,VWS V14.01,2013-09-19 16:59:00,
2013-09-19 12:00:00,71.9,69.8,29.75,SSW,198,4.0,7.0,93,0.02,,---,0.21,90.00,VWS V14.01,2013-09-19 17:00:00,
2013-09-19 12:04:00,71.9,70.1,29.75,South,174,1.0,4.0,94,0.00,,---,0.21,111.00,VWS V14.01,2013-09-19 17:04:00,
2013-09-19 12:09:00,71.9,69.8,29.75,South,178,1.0,5.0,93,0.00,,---,0.21,132.00,VWS V14.01,2013-09-19 17:09:00,
2013-09-19 12:14:00,71.9,69.8,29.75,South,179,1.0,5.0,93,0.00,,---,0.21,139.00,VWS V14.01,2013-09-19 17:14:00,
2013-09-19 12:19:00,72.0,69.9,29.75,SSW,207,1.0,5.0,93,0.00,,---,0.21,155.00,VWS V14.01,2013-09-19 17:19:00,
2013-09-19 12:24:00,72.2,70.4,29.75,SSE,167,1.0,5.0,94,0.00,,---,0.21,193.00,VWS V14.01,2013-09-19 17:24:00,
2013-09-19 12:29:00,72.4,70.6,29.74,SE,136,1.0,5.0,94,0.00,,---,0.21,230.00,VWS V14.01,2013-09-19 17:29:00,
2013-09-19 12:34:00,72.8,70.7,29.74,SSE,159,4.0,5.0,93,0.00,,---,0.21,283.00,VWS V14.01,2013-09-19 17:34:00,
2013-09-19 12:39:00,73.1,70.6,29.74,SSE,165,0.0,5.0,92,0.00,,---,0.21,315.00,VWS V14.01,2013-09-19 17:39:00,
2013-09-19 12:44:00,73.8,71.3,29.74,SSW,206,3.0,5.0,92,0.00,,---,0.21,399.00,VWS V14.01,2013-09-19 17:44:00,
2013-09-19 12:49:00,74.8,72.0,29.74,SSW,196,2.0,5.0,91,0.00,,---,0.21,543.00,VWS V14.01,2013-09-19 17:49:00,
2013-09-19 12:54:00,76.0,72.5,29.74,SSW,201,0.0,5.0,89,0.00,,---,0.21,487.00,VWS V14.01,2013-09-19 17:54:00,
2013-09-19 12:59:00,76.5,72.3,29.74,SSW,202,2.0,2.0,87,0.00,,---,0.21,381.00,VWS V14.01,2013-09-19 17:59:00,
2013-09-19 13:00:00,76.5,72.7,29.74,SSW,202,2.0,5.0,88,0.00,,---,0.21,468.00,VWS V14.01,2013-09-19 18:00:00,
2013-09-19 13:04:00,77.1,72.6,29.74,South,189,2.0,3.0,86,0.00,,---,0.21,659.00,VWS V14.01,2013-09-19 18:04:00,
2013-09-19 13:09:00,78.3,72.7,29.74,South,173,2.0,4.0,83,0.00,,---,0.21,773.00,VWS V14.01,2013-09-19 18:09:00,
2013-09-19 13:14:00,78.7,72.8,29.73,South,186,0.0,4.0,82,0.00,,---,0.21,795.00,VWS V14.01,2013-09-19 18:14:00,
2013-09-19 13:19:00,80.4,74.4,29.72,SSW,197,3.0,6.0,82,0.00,,---,0.21,777.00,VWS V14.01,2013-09-19 18:19:00,
2013-09-19 13:24:00,81.3,74.5,29.72,South,169,2.0,6.0,80,0.00,,---,0.21,768.00,VWS V14.01,2013-09-19 18:24:00,
2013-09-19 13:29:00,81.4,73.9,29.72,SSW,208,3.0,7.0,78,0.00,,---,0.21,763.00,VWS V14.01,2013-09-19 18:29:00,
2013-09-19 13:34:00,81.8,73.5,29.71,SSW,201,4.0,7.0,76,0.00,,---,0.21,765.00,VWS V14.01,2013-09-19 18:34:00,
2013-09-19 13:39:00,81.2,73.3,29.72,SSW,208,3.0,8.0,77,0.00,,---,0.21,707.00,VWS V14.01,2013-09-19 18:39:00,
2013-09-19 13:44:00,82.1,74.6,29.72,SW,221,3.0,8.0,78,0.00,,---,0.21,791.00,VWS V14.01,2013-09-19 18:44:00,
2013-09-19 13:49:00,82.2,74.7,29.72,SW,218,3.0,8.0,78,0.00,,---,0.21,306.00,VWS V14.01,2013-09-19 18:49:00,
2013-09-19 13:54:00,81.4,73.9,29.72,SSW,200,4.0,8.0,78,0.00,,---,0.21,413.00,VWS V14.01,2013-09-19 18:54:00,
2013-09-19 13:59:00,81.1,73.6,29.71,SSW,202,5.0,5.0,78,0.00,,---,0.21,285.00,VWS V14.01,2013-09-19 18:59:00,
2013-09-19 14:00:00,81.1,73.6,29.71,SW,215,3.0,8.0,78,0.00,,---,0.21,285.00,VWS V14.01,2013-09-19 19:00:00,
2013-09-19 14:04:00,81.3,73.8,29.71,SW,222,4.0,7.0,78,0.00,,---,0.21,707.00,VWS V14.01,2013-09-19 19:04:00,
2013-09-19 14:09:00,81.6,74.1,29.71,SSW,201,5.0,7.0,78,0.00,,---,0.21,343.00,VWS V14.01,2013-09-19 19:09:00,
2013-09-19 14:14:00,82.3,74.0,29.70,South,191,6.0,7.0,76,0.00,,---,0.21,410.00,VWS V14.01,2013-09-19 19:14:00,
2013-09-19 14:19:00,83.0,74.3,29.70,SSW,210,5.0,7.0,75,0.00,,---,0.21,694.00,VWS V14.01,2013-09-19 19:19:00,
2013-09-19 14:24:00,83.4,74.2,29.69,SSW,198,5.0,7.0,74,0.00,,---,0.21,649.00,VWS V14.01,2013-09-19 19:24:00,
2013-09-19 14:29:00,83.9,74.7,29.69,SSW,203,7.0,8.0,74,0.00,,---,0.21,684.00,VWS V14.01,2013-09-19 19:29:00,
2013-09-19 14:34:00,83.8,74.6,29.69,SSW,200,3.0,8.0,74,0.00,,---,0.21,686.00,VWS V14.01,2013-09-19 19:34:00,
2013-09-19 14:39:00,84.2,74.2,29.68,SSW,209,3.0,8.0,72,0.00,,---,0.21,705.00,VWS V14.01,2013-09-19 19:39:00,
2013-09-19 14:44:00,84.4,73.6,29.68,SSW,207,5.0,8.0,70,0.00,,---,0.21,599.00,VWS V14.01,2013-09-19 19:44:00,
2013-09-19 14:49:00,83.7,73.3,29.68,SSW,204,6.0,8.0,71,0.00,,---,0.21,230.00,VWS V14.01,2013-09-19 19:49:00,
2013-09-19 14:54:00,84.0,73.6,29.68,SSW,209,5.0,8.0,71,0.00,,---,0.21,234.00,VWS V14.01,2013-09-19 19:54:00,
2013-09-19 14:59:00,84.6,73.7,29.67,SSW,195,5.0,7.0,70,0.00,,---,0.21,691.00,VWS V14.01,2013-09-19 19:59:00,
2013-09-19 15:00:00,84.5,73.7,29.68,SSE,167,4.0,8.0,70,0.00,,---,0.21,234.00,VWS V14.01,2013-09-19 20:00:00,
2013-09-19 15:04:00,84.8,73.5,29.67,SSW,205,2.0,7.0,69,0.00,,---,0.21,151.00,VWS V14.01,2013-09-19 20:04:00,
2013-09-19 15:09:00,84.4,73.1,29.67,SSW,198,2.0,7.0,69,0.00,,---,0.21,726.00,VWS V14.01,2013-09-19 20:09:00,
2013-09-19 15:14:00,85.0,73.7,29.67,SSW,201,2.0,7.0,69,0.00,,---,0.21,213.00,VWS V14.01,2013-09-19 20:14:00,
2013-09-19 15:19:00,84.3,73.0,29.67,SSE,155,4.0,7.0,69,0.00,,---,0.21,257.00,VWS V14.01,2013-09-19 20:19:00,
2013-09-19 15:24:00,84.6,73.3,29.66,SSW,211,4.0,7.0,69,0.00,,---,0.21,645.00,VWS V14.01,2013-09-19 20:24:00,
2013-09-19 15:29:00,84.7,73.8,29.66,SSW,200,4.0,7.0,70,0.00,,---,0.21,246.00,VWS V14.01,2013-09-19 20:29:00,
2013-09-19 15:34:00,84.4,73.6,29.66,SW,224,3.0,7.0,70,0.00,,---,0.21,179.00,VWS V14.01,2013-09-19 20:34:00,
2013-09-19 15:39:00,83.9,73.5,29.66,SSW,213,2.0,7.0,71,0.00,,---,0.21,151.00,VWS V14.01,2013-09-19 20:39:00,
2013-09-19 15:44:00,83.7,72.9,29.65,SW,216,0.0,7.0,70,0.00,,---,0.21,130.00,VWS V14.01,2013-09-19 20:44:00,
2013-09-19 15:49:00,83.7,73.7,29.65,SW,216,2.0,7.0,72,0.00,,---,0.21,139.00,VWS V14.01,2013-09-19 20:49:00,
2013-09-19 15:54:00,83.6,73.6,29.66,SSW,204,3.0,7.0,72,0.00,,---,0.21,107.00,VWS V14.01,2013-09-19 20:54:00,
2013-09-19 15:59:00,83.5,73.5,29.66,SSW,204,2.0,2.0,72,0.00,,---,0.21,74.00,VWS V14.01,2013-09-19 20:59:00,
2013-09-19 16:00:00,83.5,73.1,29.66,SSW,204,2.0,7.0,71,0.00,,---,0.21,74.00,VWS V14.01,2013-09-19 21:00:00,
2013-09-19 16:04:00,83.3,72.9,29.65,SSW,202,1.0,5.0,71,0.00,,---,0.21,32.00,VWS V14.01,2013-09-19 21:04:00,
2013-09-19 16:09:00,83.0,73.1,29.64,SSW,202,0.0,5.0,72,0.00,,---,0.21,33.00,VWS V14.01,2013-09-19 21:09:00,
2013-09-19 16:14:00,82.6,73.1,29.65,SSW,202,2.0,5.0,73,0.00,,---,0.21,18.00,VWS V14.01,2013-09-19 21:14:00,
2013-09-19 16:19:00,82.3,72.8,29.64,SSW,202,0.0,5.0,73,0.00,,---,0.21,32.00,VWS V14.01,2013-09-19 21:19:00,
2013-09-19 16:24:00,82.1,73.0,29.64,SW,215,0.0,5.0,74,0.00,,---,0.21,12.00,VWS V14.01,2013-09-19 21:24:00,
2013-09-19 16:29:00,81.9,72.8,29.64,SW,215,0.0,5.0,74,0.00,,---,0.21,5.00,VWS V14.01,2013-09-19 21:29:00,
2013-09-19 16:34:00,81.9,74.0,29.64,SSW,196,3.0,5.0,77,0.00,,---,0.21,0.00,VWS V14.01,2013-09-19 21:34:00,
2013-09-19 16:39:00,77.6,68.3,29.67,SSW,198,9.0,20.0,73,0.04,,---,0.25,0.00,VWS V14.01,2013-09-19 21:39:00,
2013-09-19 16:44:00,74.2,68.4,29.67,WSW,240,1.0,20.0,82,0.10,,---,0.31,0.00,VWS V14.01,2013-09-19 21:44:00,
2013-09-19 16:49:00,73.3,68.5,29.66,North,9,2.0,20.0,85,0.14,,---,0.35,0.00,VWS V14.01,2013-09-19 21:49:00,
2013-09-19 16:54:00,72.7,68.3,29.66,NNE,28,3.0,20.0,86,0.17,,---,0.38,0.00,VWS V14.01,2013-09-19 21:54:00,
2013-09-19 16:59:00,72.2,68.1,29.67,NNE,28,0.0,0.0,87,0.18,,---,0.39,0.00,VWS V14.01,2013-09-19 21:59:00,
2013-09-19 17:00:00,72.2,68.1,29.66,NNE,28,0.0,20.0,87,0.18,,---,0.39,0.00,VWS V14.01,2013-09-19 22:00:00,
2013-09-19 17:04:00,71.7,68.3,29.65,North,5,0.0,3.0,89,0.18,,---,0.39,0.00,VWS V14.01,2013-09-19 22:04:00,
2013-09-19 17:09:00,71.5,68.4,29.63,North,5,0.0,3.0,90,0.18,,---,0.39,0.00,VWS V14.01,2013-09-19 22:09:00,
2013-09-19 17:14:00,71.4,68.3,29.62,North,5,0.0,3.0,90,0.19,,---,0.40,0.00,VWS V14.01,2013-09-19 22:14:00,
2013-09-19 17:19:00,71.3,68.5,29.61,North,5,0.0,3.0,91,0.19,,---,0.40,0.00,VWS V14.01,2013-09-19 22:19:00,
2013-09-19 17:24:00,71.1,68.3,29.62,North,5,0.0,3.0,91,0.19,,---,0.40,5.00,VWS V14.01,2013-09-19 22:24:00,
2013-09-19 17:29:00,71.0,68.2,29.63,North,5,0.0,3.0,91,0.19,,---,0.40,5.00,VWS V14.01,2013-09-19 22:29:00,
2013-09-19 17:34:00,70.9,68.5,29.64,North,5,2.0,3.0,92,0.19,,---,0.40,7.00,VWS V14.01,2013-09-19 22:34:00,
2013-09-19 17:39:00,70.9,68.8,29.66,North,5,1.0,3.0,93,0.19,,---,0.40,9.00,VWS V14.01,2013-09-19 22:39:00,
2013-09-19 17:44:00,70.6,68.5,29.66,SW,217,0.0,3.0,93,0.20,,---,0.41,12.00,VWS V14.01,2013-09-19 22:44:00,
2013-09-19 17:49:00,70.4,68.3,29.67,SW,217,2.0,3.0,93,0.20,,---,0.41,11.00,VWS V14.01,2013-09-19 22:49:00,
2013-09-19 17:54:00,70.1,68.0,29.68,SSW,194,2.0,3.0,93,0.20,,---,0.41,9.00,VWS V14.01,2013-09-19 22:54:00,
2013-09-19 17:59:00,69.8,67.7,29.67,SSW,194,0.0,0.0,93,0.02,,---,0.41,7.00,VWS V14.01,2013-09-19 22:59:00,
2013-09-19 18:00:00,69.8,67.7,29.67,SSW,194,0.0,3.0,93,0.20,,---,0.41,7.00,VWS V14.01,2013-09-19 23:00:00,
2013-09-19 18:04:00,69.7,67.6,29.68,SSW,194,0.0,2.0,93,0.02,,---,0.41,0.00,VWS V14.01,2013-09-19 23:04:00,
2013-09-19 18:09:00,69.5,67.4,29.67,SSW,194,0.0,2.0,93,0.02,,---,0.41,0.00,VWS V14.01,2013-09-19 23:09:00,
2013-09-19 18:14:00,69.2,67.1,29.67,SSW,194,1.0,2.0,93,0.02,,---,0.41,0.00,VWS V14.01,2013-09-19 23:14:00,
2013-09-19 18:19:00,69.0,66.9,29.68,SSW,194,1.0,2.0,93,0.02,,---,0.41,0.00,VWS V14.01,2013-09-19 23:19:00,
2013-09-19 18:24:00,68.8,66.7,29.67,SSW,194,1.0,3.0,93,0.02,,---,0.41,0.00,VWS V14.01,2013-09-19 23:24:00,
2013-09-19 18:29:00,68.6,66.5,29.67,SSW,194,1.0,3.0,93,0.02,,---,0.41,0.00,VWS V14.01,2013-09-19 23:29:00,
2013-09-19 18:34:00,68.5,66.1,29.67,SSW,194,0.0,3.0,92,0.02,,---,0.41,0.00,VWS V14.01,2013-09-19 23:34:00,
2013-09-19 18:39:00,68.4,66.0,29.67,SSW,194,0.0,3.0,92,0.02,,---,0.41,0.00,VWS V14.01,2013-09-19 23:39:00,
2013-09-19 18:44:00,68.3,66.2,29.68,SSW,194,0.0,3.0,93,0.02,,---,0.41,0.00,VWS V14.01,2013-09-19 23:44:00,
2013-09-19 18:49:00,68.2,66.1,29.69,SSW,194,0.0,3.0,93,0.02,,---,0.41,0.00,VWS V14.01,2013-09-19 23:49:00,
2013-09-19 18:54:00,68.1,66.0,29.68,SSW,194,0.0,3.0,93,0.02,,---,0.41,0.00,VWS V14.01,2013-09-19 23:54:00,
2013-09-19 18:59:00,68.1,66.0,29.68,SSW,194,0.0,0.0,93,0.00,,---,0.41,0.00,VWS V14.01,2013-09-19 23:59:00,
2013-09-19 19:00:00,68.1,66.0,29.68,SSW,194,0.0,3.0,93,0.02,,---,0.41,0.00,VWS V14.01,2013-09-20 00:00:00,
2013-09-19 19:04:00,68.0,65.9,29.68,SSW,194,0.0,0.0,93,0.00,,---,0.41,0.00,VWS V14.01,2013-09-20 00:04:00,
2013-09-19 19:09:00,67.9,65.8,29.68,SSW,194,0.0,0.0,93,0.00,,---,0.41,0.00,VWS V14.01,2013-09-20 00:09:00,
2013-09-19 19:14:00,67.9,65.8,29.68,SSW,194,3.0,3.0,93,0.00,,---,0.41,0.00,VWS V14.01,2013-09-20 00:14:00,
2013-09-19 19:19:00,67.8,65.7,29.68,SSW,194,0.0,3.0,93,0.00,,---,0.41,0.00,VWS V14.01,2013-09-20 00:19:00,
2013-09-19 19:24:00,67.8,65.7,29.67,SSW,194,0.0,3.0,93,0.00,,---,0.41,0.00,VWS V14.01,2013-09-20 00:24:00,
2013-09-19 19:29:00,67.7,65.9,29.67,SSW,194,2.0,3.0,94,0.00,,---,0.41,0.00,VWS V14.01,2013-09-20 00:29:00,
2013-09-19 19:34:00,67.7,65.9,29.67,SSW,194,1.0,3.0,94,0.00,,---,0.41,0.00,VWS V14.01,2013-09-20 00:34:00,
2013-09-19 19:39:00,67.7,65.9,29.68,SSW,194,2.0,3.0,94,0.00,,---,0.41,0.00,VWS V14.01,2013-09-20 00:39:00,
2013-09-19 19:44:00,67.6,65.8,29.67,SSW,194,0.0,3.0,94,0.00,,---,0.41,0.00,VWS V14.01,2013-09-20 00:44:00,
2013-09-19 19:49:00,67.6,65.8,29.68,SSW,194,0.0,3.0,94,0.00,,---,0.41,0.00,VWS V14.01,2013-09-20 00:49:00,
2013-09-19 19:54:00,67.5,65.7,29.69,SSW,194,0.0,3.0,94,0.00,,---,0.41,0.00,VWS V14.01,2013-09-20 00:54:00,
2013-09-19 19:59:00,67.4,65.9,29.68,SSW,194,0.0,0.0,95,0.00,,---,0.41,0.00,VWS V14.01,2013-09-20 00:59:00,
2013-09-19 20:00:00,67.5,66.0,29.68,SSW,194,0.0,3.0,95,0.00,,---,0.41,0.00,VWS V14.01,2013-09-20 01:00:00,
2013-09-19 20:04:00,67.4,65.9,29.69,SSW,194,0.0,0.0,95,0.00,,---,0.41,0.00,VWS V14.01,2013-09-20 01:04:00,
2013-09-19 20:09:00,67.4,65.9,29.69,SSW,194,2.0,2.0,95,0.00,,---,0.41,0.00,VWS V14.01,2013-09-20 01:09:00,
2013-09-19 20:14:00,67.4,65.9,29.70,SSW,194,0.0,2.0,95,0.00,,---,0.41,0.00,VWS V14.01,2013-09-20 01:14:00,
2013-09-19 20:19:00,67.4,65.9,29.71,SSW,194,0.0,2.0,95,0.01,,---,0.42,0.00,VWS V14.01,2013-09-20 01:19:00,
2013-09-19 20:24:00,67.4,65.9,29.71,SSW,194,0.0,2.0,95,0.01,,---,0.42,0.00,VWS V14.01,2013-09-20 01:24:00,
2013-09-19 20:29:00,67.4,65.9,29.71,SSW,194,1.0,2.0,95,0.01,,---,0.42,0.00,VWS V14.01,2013-09-20 01:29:00,
2013-09-19 20:34:00,67.4,65.9,29.70,WSW,258,0.0,2.0,95,0.02,,---,0.43,0.00,VWS V14.01,2013-09-20 01:34:00,
2013-09-19 20:39:00,67.4,65.9,29.70,WSW,258,0.0,2.0,95,0.03,,---,0.44,0.00,VWS V14.01,2013-09-20 01:39:00,
2013-09-19 20:44:00,67.5,66.3,29.70,WSW,258,0.0,2.0,96,0.04,,---,0.45,0.00,VWS V14.01,2013-09-20 01:44:00,
2013-09-19 20:49:00,67.6,66.4,29.70,WSW,258,1.0,2.0,96,0.05,,---,0.46,0.00,VWS V14.01,2013-09-20 01:49:00,
2013-09-19 20:54:00,67.6,66.4,29.69,WSW,258,1.0,2.0,96,0.06,,---,0.47,0.00,VWS V14.01,2013-09-20 01:54:00,
2013-09-19 20:59:00,67.6,66.4,29.68,NNE,25,2.0,2.0,96,0.07,,---,0.48,0.00,VWS V14.01,2013-09-20 01:59:00,
2013-09-19 21:00:00,67.6,66.4,29.69,NNE,25,1.0,3.0,96,0.07,,---,0.48,0.00,VWS V14.01,2013-09-20 02:00:00,
2013-09-19 21:04:00,67.6,66.4,29.69,NNE,24,2.0,2.0,96,0.08,,---,0.49,0.00,VWS V14.01,2013-09-20 02:04:00,
2013-09-19 21:09:00,67.7,66.5,29.67,NNE,24,0.0,2.0,96,0.09,,---,0.50,0.00,VWS V14.01,2013-09-20 02:09:00,
2013-09-19 21:14:00,67.7,66.5,29.68,NNE,24,0.0,2.0,96,0.09,,---,0.50,0.00,VWS V14.01,2013-09-20 02:14:00,
2013-09-19 21:19:00,67.7,66.5,29.68,NNE,24,0.0,2.0,96,0.09,,---,0.50,0.00,VWS V14.01,2013-09-20 02:19:00,
2013-09-19 21:24:00,67.8,66.6,29.70,SE,146,2.0,2.0,96,0.09,,---,0.50,0.00,VWS V14.01,2013-09-20 02:24:00,
2013-09-19 21:29:00,67.9,67.0,29.71,SSE,154,0.0,2.0,97,0.10,,---,0.51,0.00,VWS V14.01,2013-09-20 02:29:00,
2013-09-19 21:34:00,68.0,67.1,29.69,South,171,0.0,4.0,97,0.12,,---,0.53,0.00,VWS V14.01,2013-09-20 02:34:00,
2013-09-19 21:39:00,68.1,67.2,29.68,ESE,111,0.0,4.0,97,0.14,,---,0.55,0.00,VWS V14.01,2013-09-20 02:39:00,
2013-09-19 21:44:00,68.1,67.2,29.66,ESE,111,1.0,4.0,97,0.15,,---,0.56,0.00,VWS V14.01,2013-09-20 02:44:00,
2013-09-19 21:49:00,68.1,67.2,29.65,ESE,111,0.0,4.0,97,0.15,,---,0.56,0.00,VWS V14.01,2013-09-20 02:49:00,
2013-09-19 21:54:00,68.1,67.2,29.65,ESE,111,0.0,4.0,97,0.16,,---,0.57,0.00,VWS V14.01,2013-09-20 02:54:00,
2013-09-19 21:59:00,68.1,67.2,29.65,ESE,111,0.0,0.0,97,0.10,,---,0.58,0.00,VWS V14.01,2013-09-20 02:59:00,
2013-09-19 22:00:00,68.1,67.2,29.65,ESE,111,0.0,4.0,97,0.17,,---,0.58,0.00,VWS V14.01,2013-09-20 03:00:00,
2013-09-19 22:04:00,68.0,67.1,29.66,ESE,111,0.0,2.0,97,0.10,,---,0.58,0.00,VWS V14.01,2013-09-20 03:04:00,
2013-09-19 22:09:00,68.0,67.1,29.65,ESE,111,0.0,2.0,97,0.10,,---,0.58,0.00,VWS V14.01,2013-09-20 03:09:00,
2013-09-19 22:14:00,67.9,67.0,29.65,ESE,111,0.0,2.0,97,0.10,,---,0.58,0.00,VWS V14.01,2013-09-20 03:14:00,
2013-09-19 22:19:00,67.9,67.0,29.65,ESE,111,0.0,2.0,97,0.10,,---,0.58,0.00,VWS V14.01,2013-09-20 03:19:00,
2013-09-19 22:24:00,67.9,67.0,29.66,ESE,111,0.0,2.0,97,0.10,,---,0.58,0.00,VWS V14.01,2013-09-20 03:24:00,
2013-09-19 22:29:00,67.9,67.0,29.68,South,169,2.0,3.0,97,0.10,,---,0.58,0.00,VWS V14.01,2013-09-20 03:29:00,
2013-09-19 22:34:00,68.1,67.2,29.70,SSW,196,3.0,3.0,97,0.10,,---,0.58,0.00,VWS V14.01,2013-09-20 03:34:00,
2013-09-19 22:39:00,68.2,67.3,29.69,SSW,196,0.0,3.0,97,0.10,,---,0.58,0.00,VWS V14.01,2013-09-20 03:39:00,
2013-09-19 22:44:00,68.1,67.2,29.69,SSW,196,1.0,3.0,97,0.10,,---,0.58,0.00,VWS V14.01,2013-09-20 03:44:00,
2013-09-19 22:49:00,68.2,67.3,29.70,SSW,196,0.0,3.0,97,0.10,,---,0.58,0.00,VWS V14.01,2013-09-20 03:49:00,
2013-09-19 22:54:00,68.1,67.2,29.70,SSW,196,1.0,3.0,97,0.10,,---,0.58,0.00,VWS V14.01,2013-09-20 03:54:00,
2013-09-19 22:59:00,68.1,67.2,29.70,SSW,196,0.0,0.0,97,0.00,,---,0.58,0.00,VWS V14.01,2013-09-20 03:59:00,
2013-09-19 23:00:00,68.1,67.2,29.70,SSW,196,0.0,3.0,97,0.10,,---,0.58,0.00,VWS V14.01,2013-09-20 04:00:00,
2013-09-19 23:01:00,68.1,67.2,29.70,SSW,196,0.0,0.0,97,0.00,,---,0.58,0.00,VWS V14.01,2013-09-20 04:01:00,
2013-09-19 23:06:00,68.1,67.2,29.70,SSW,196,0.0,0.0,97,0.00,,---,0.58,0.00,VWS V14.01,2013-09-20 04:06:00,
2013-09-19 23:11:00,68.1,67.2,29.70,SSW,196,0.0,2.0,97,0.00,,---,0.58,0.00,VWS V14.01,2013-09-20 04:11:00,
2013-09-19 23:16:00,68.1,67.2,29.70,SSW,196,0.0,2.0,97,0.00,,---,0.58,0.00,VWS V14.01,2013-09-20 04:16:00,
2013-09-19 23:21:00,68.1,67.2,29.69,SSW,196,0.0,2.0,97,0.00,,---,0.58,0.00,VWS V14.01,2013-09-20 04:21:00,
2013-09-19 23:26:00,68.1,67.2,29.69,SSW,196,0.0,2.0,97,0.00,,---,0.58,0.00,VWS V14.01,2013-09-20 04:26:00,
2013-09-19 23:31:00,68.0,67.1,29.69,NNW,340,1.0,3.0,97,0.00,,---,0.58,0.00,VWS V14.01,2013-09-20 04:31:00,
2013-09-19 23:36:00,68.0,67.1,29.69,NNW,339,0.0,3.0,97,0.00,,---,0.58,0.00,VWS V14.01,2013-09-20 04:36:00,
2013-09-19 23:41:00,68.0,67.1,29.69,NNW,339,0.0,3.0,97,0.01,,---,0.59,0.00,VWS V14.01,2013-09-20 04:41:00,
2013-09-19 23:46:00,68.0,67.1,29.69,NNW,339,0.0,3.0,97,0.02,,---,0.60,0.00,VWS V14.01,2013-09-20 04:46:00,
2013-09-19 23:51:00,67.9,67.0,29.69,NNW,339,0.0,3.0,97,0.02,,---,0.60,0.00,VWS V14.01,2013-09-20 04:51:00,
2013-09-19 23:56:00,67.9,67.0,29.69,NNW,339,0.0,3.0,97,0.02,,---,0.60,0.00,VWS V14.01,2013-09-20 04:56:00,